Location: Banff
(51.1670°N, 115.5670°W)
Time: 00:48:35
(UTC-06:00)

Daily predictions for brighter satellites

Satellite Brightness Start Highest point End
(mag) Time Altitude Azimuth Time Altitude Azimuth Time Altitude Azimuth
H-2A R/B 4.2 00:00:22 10° SW 00:03:40 18° W 00:07:02 10° NW
Meteor 1-20 Rocket 4.1 00:00:35 10° NNW 00:06:05 85° W 00:07:07 60° S
ATLAS 5 CENTAUR R/B 2.4 00:05:17 10° NW 00:11:02 76° NE 00:12:44 50° ESE
CZ-4C R/B 2.7 00:11:58 42° E 00:11:58 42° E 00:16:53 10° NE
Cosmos 1933 4.5 00:11:42 35° WSW 00:12:29 39° WNW 00:16:21 10° N
BREEZE M DEB (TANK) 3.0 00:02:44 10° W 00:14:04 77° S 00:14:49 63° ESE
Cosmos 921 Rocket 3.8 00:15:45 42° ENE 00:15:45 42° ENE 00:18:55 10° NNE
Sich 1 Rocket 3.7 00:15:53 10° N 00:20:20 68° ENE 00:20:20 68° ENE
Helios 1B rocket 4.3 00:21:51 10° N 00:25:22 28° WNW 00:27:05 20° WSW
USA 267 3.1 00:19:06 10° ENE 00:25:42 84° SSE 00:32:15 10° WSW
Cosmos 1733 Rocket 4.2 00:24:50 10° NNW 00:28:50 35° W 00:29:08 34° W
Cosmos 1605 Rocket 4.0 00:29:05 54° SSW 00:30:42 86° W 00:37:09 10° N
Meteor 1-11 Rocket 3.8 00:32:16 10° N 00:37:56 63° ENE 00:38:30 60° ESE
Cosmos 1782 3.5 00:40:25 51° N 00:40:25 51° N 00:43:28 10° N
Okean 2 Rocket 3.6 00:35:13 10° N 00:39:05 50° NE 00:39:05 50° NE
Cosmos 1452 Rocket 4.1 00:38:48 36° WSW 00:40:36 53° WNW 00:45:46 10° NNE
Cosmos 1633 4.5 00:39:21 10° NNW 00:41:39 25° WNW 00:41:39 25° WNW
CZ-4 R/B 4.0 00:37:54 10° NNE 00:42:18 64° ENE 00:42:18 64° ENE
SL-16 R/B 3.3 00:38:36 13° WSW 00:43:20 42° NW 00:48:44 10° NNE
Cosmos 1447 Rocket 4.5 00:37:27 10° NNW 00:43:35 73° W 00:44:40 59° SSW
Cosmos 2242 Rocket 4.5 00:43:15 40° W 00:43:38 41° WNW 00:47:50 10° N
Cosmos 1536 4.1 00:41:26 10° N 00:44:21 34° NE 00:44:21 34° NE
Cosmos 1782 Rocket 3.8 00:44:03 10° NNW 00:48:01 68° NNW 00:48:01 68° NNW
SL-19 R/B 4.4 00:46:23 10° NNE 00:52:27 77° ESE 00:53:15 67° SSE
Mayak 0.1 00:48:32 10° NNE 00:51:15 32° NE 00:51:15 32° NE
Meteor 1-27 Rocket 4.0 00:54:45 56° ESE 00:54:57 56° E 01:00:39 10° NNE
Cosmos 1943 Rocket 2.2 00:49:35 10° NW 00:55:04 64° WSW 00:55:09 64° WSW
Cosmos 1459 Rocket 3.9 00:58:57 63° SE 00:59:32 67° E 01:05:37 10° NNE
ADEOS Rocket 3.8 00:53:43 10° NNE 01:00:21 40° E 01:01:06 39° ESE
Cosmos 1606 4.0 01:01:15 37° NW 01:01:15 37° NW 01:04:21 10° N
CZ-2C R/B 4.4 01:01:45 24° W 01:02:00 25° W 01:05:56 10° NW
Cosmos 1461 3.4 00:57:19 10° NW 01:01:36 70° NNW 01:01:36 70° NNW
Cosmos 2151 Rocket 4.3 00:57:45 10° N 01:01:40 48° NE 01:01:40 48° NE
RESURS DK-1 3.7 00:58:20 10° NW 01:01:00 33° WNW 01:01:00 33° WNW
USA 234 3.8 01:02:31 40° SW 01:02:31 40° SW 01:08:33 10° WNW
Cosmos 2221 Rocket 4.1 01:06:22 58° NNE 01:06:22 58° NNE 01:10:09 10° NNE
Okean 1-7 3.6 01:07:48 56° N 01:07:48 56° N 01:11:15 10° N
Cosmos 1656 Rocket 3.6 01:01:26 10° NNW 01:07:11 76° ENE 01:07:39 71° ESE
Cosmos 1603 3.9 01:08:39 53° WSW 01:09:48 65° NW 01:15:24 10° NNE
CZ-4B R/B 3.8 01:05:14 10° NNE 01:09:14 53° ENE 01:09:14 53° ENE
SeaSat 1 2.6 01:15:10 66° W 01:15:10 66° W 01:19:40 10° NW
Cosmos 1943 3.0 01:15:18 84° SSW 01:15:30 88° ESE 01:21:15 10° NNE
Cosmos 1703 Rocket 4.3 01:18:37 47° NW 01:18:37 47° NW 01:22:19 10° N
Cosmos 2369 Rocket 3.2 01:13:55 10° NW 01:18:48 33° WSW 01:18:48 33° WSW
Terra 4.3 01:18:33 11° W 01:19:23 11° W 01:20:53 10° WNW
Cosmos 2061 Rocket 3.9 01:21:49 69° SSE 01:22:37 82° E 01:29:06 10° NNE
H-2A R/B 2.8 01:26:26 49° WNW 01:26:26 49° WNW 01:30:08 10° NNW
ATLAS CENTAUR R/B 4.4 01:24:02 10° NW 01:26:15 14° NNW 01:28:33 10° NNE
Cosmos 1802 Rocket 3.8 01:26:25 74° S 01:27:03 87° E 01:33:18 10° N
Cosmos 1271 Rocket 4.1 01:23:53 10° NNW 01:26:25 37° NW 01:26:25 37° NW
Meteor 1-5 Rocket 4.0 01:22:38 10° NNW 01:27:52 74° W 01:27:52 74° W
Lacrosse 4 Rocket 4.4 01:25:37 10° N 01:28:15 15° NNE 01:30:54 10° ENE
Cosmos 1302 Rocket 4.3 01:29:16 56° ENE 01:29:16 56° ENE 01:33:47 10° NNE
deb Chang Zheng 4 4.4 01:24:22 10° NNE 01:27:34 45° NE 01:27:34 45° NE
Cosmos 2100 Rocket 4.0 01:28:21 63° SW 01:29:21 75° W 01:35:46 10° N
CZ-4B R/B 4.2 01:30:38 13° ENE 01:30:38 13° ENE 01:32:17 10° NNE
ALOS 2 3.5 01:31:31 42° WNW 01:31:31 42° WNW 01:34:52 10° NNW
Lacrosse 5 3.4 01:29:20 10° WNW 01:31:46 25° W 01:31:46 25° W
Meteor 2-12 Rocket 4.2 01:37:24 75° SSW 01:37:58 86° W 01:44:04 10° N
CZ-2C R/B 3.9 01:33:35 10° N 01:38:16 33° WNW 01:39:51 28° W
Cosmos 2344 4.2 01:30:54 10° WSW 01:38:32 60° NNW 01:47:49 10° NE
Cosmos 1864 Rocket 4.4 01:39:32 65° SE 01:40:12 71° E 01:46:28 10° NNE
Cosmos 2346 Rocket 4.5 01:34:24 10° N 01:40:39 71° ENE 01:41:32 62° SE
SL-08 R/B 4.4 01:44:24 70° S 01:45:11 85° E 01:51:40 10° N
Cosmos 2233 Rocket 4.2 01:49:33 52° ESE 01:50:11 55° E 01:56:10 10° NNE
COBE Rocket 4.5 01:45:47 10° N 01:50:28 47° WNW 01:50:29 47° WNW
Cosmos 1331 Rocket 4.4 01:53:27 53° W 01:53:55 55° WNW 01:59:07 10° NNE
ATLAS 5 CENTAUR R/B 3.6 01:50:23 10° WNW 01:54:16 28° W 01:54:16 28° W
USA 32 4.2 01:52:54 10° N 01:58:10 63° E 01:58:18 62° E
CZ-4C R/B 3.0 01:57:05 30° W 01:59:37 50° NNW 02:05:55 10° NE
Cosmos 968 Rocket 3.6 01:57:57 10° NNW 02:03:12 69° ENE 02:03:27 68° E
Cosmos 1666 4.2 02:03:30 10° N 02:06:05 35° NNE 02:06:05 35° NNE
Cosmos 1975 3.8 02:03:20 10° N 02:06:29 47° NNE 02:06:29 47° NNE
Cosmos 1812 4.0 02:08:44 40° N 02:08:44 40° N 02:11:21 10° N
Okean 1 Rocket 3.5 02:02:57 10° N 02:06:41 60° NNW 02:06:41 60° NNW
USA 267 3.8 02:02:10 10° ENE 02:08:34 58° N 02:14:57 10° W
Cosmos 1725 Rocket 3.9 02:09:12 66° SW 02:09:59 76° W 02:16:12 10° N
Cosmos 1503 Rocket 4.3 02:05:47 10° NNW 02:10:17 54° WNW 02:10:17 54° WNW
Cosmos 1743 3.9 02:11:35 10° N 02:14:28 42° NNE 02:14:28 42° NNE
MOS 1 Rocket 4.2 02:12:16 10° NNE 02:16:17 38° E 02:16:17 38° E
Gblst 52 Del rocket 4.0 02:19:37 80° SSE 02:19:37 80° SSE 02:25:32 10° ENE
PSLV R/B 4.3 02:20:15 10° NNE 02:23:51 47° ENE 02:23:51 47° ENE
Cosmos 2016 Rocket 4.5 02:23:30 42° W 02:24:35 46° WNW 02:30:30 10° N
Geosat 3.9 02:22:36 10° NNE 02:27:40 75° WNW 02:27:51 74° W
Mayak 0.5 02:24:33 10° N 02:27:53 25° WNW 02:27:53 25° WNW
Cosmos 1975 Rocket 3.7 02:31:45 50° ENE 02:31:45 50° ENE 02:35:42 10° NNE
Cosmos 1455 Rocket 3.9 02:27:58 10° N 02:32:11 44° ENE 02:32:15 44° ENE
Tsikada Rocket 4.5 02:26:54 10° NNW 02:32:43 44° W 02:33:14 43° WSW
Meteor 1-12 Rocket 4.1 02:29:09 10° NNW 02:34:50 87° W 02:35:22 75° S
Cosmos 1943 Rocket 4.4 02:36:12 10° WNW 02:36:40 11° W 02:36:40 11° W
Landsat 5 3.7 02:44:35 76° NNW 02:44:35 76° NNW 02:48:47 10° NNW
Meteor 2-4 Rocket 4.4 02:43:34 37° ESE 02:44:34 41° E 02:49:34 10° NNE
Meteor 1-18 Rocket 4.1 02:45:11 69° SW 02:45:44 76° WNW 02:51:27 10° N
ADEOS Rocket 3.8 02:39:09 10° N 02:46:01 50° WNW 02:48:03 38° WSW
Cosmos 909 Rocket 4.1 02:40:01 10° NW 02:46:24 75° NE 02:50:47 22° SE
Cosmos 1242 Rocket 3.7 02:49:53 10° N 02:52:31 43° NNE 02:52:31 43° NNE
Cosmos 1544 Rocket 3.7 02:50:05 10° N 02:54:12 70° NE 02:54:12 70° NE
COSMOS 2406 3.0 02:55:31 69° S 02:56:15 83° ESE 03:02:00 10° NNE
Spot 2 4.3 02:52:06 10° NNE 02:56:46 69° ESE 02:56:57 68° ESE
Cosmos 2278 3.9 02:52:30 10° NNW 02:58:11 71° ENE 03:00:35 35° SE
Exosat Rocket 4.3 02:53:59 10° NNW 02:59:27 66° ENE 03:05:35 15° SE
CZ-4B R/B 3.1 03:04:05 31° NNW 03:04:05 31° NNW 03:06:05 10° NNW
Cosmos 2034 Rocket 4.2 03:02:36 44° SSE 03:04:31 64° E 03:10:42 10° NNE
Cosmos 1980 Rocket 3.4 03:00:04 10° NNW 03:05:21 40° NE 03:10:37 10° ESE
Meteor 1-19 Rocket 4.2 03:06:15 61° S 03:07:20 84° E 03:13:10 10° NNE
Lacrosse 4 Rocket 2.2 03:03:34 10° NNW 03:07:55 54° NE 03:09:50 30° ESE
Cosmos 1992 Rocket 4.1 03:07:31 56° W 03:08:12 61° WNW 03:13:25 10° NNE
SL-24 R/B 4.3 03:02:37 10° NNE 03:08:13 83° WNW 03:08:48 70° SW
Cosmos 1697 Rocket 3.1 03:03:15 10° NNW 03:08:54 63° NE 03:12:50 20° SE
CZ-2D R/B 3.4 03:04:29 10° NNE 03:09:19 32° E 03:11:21 24° SE
Cosmos 1092 Rocket 4.4 03:07:36 10° N 03:13:45 58° ENE 03:17:20 26° SE
Cosmos 1867 3.6 03:08:52 10° NW 03:14:23 80° NE 03:18:06 21° SE
Cosmos 1340 Rocket 4.1 03:16:12 31° ESE 03:16:31 32° E 03:20:03 10° NNE
Cosmos 2082 Rocket 3.4 03:16:53 26° SE 03:18:37 31° ESE 03:23:32 10° NE
Cosmos 2084 Rocket 3.8 03:20:41 54° ESE 03:20:41 54° ESE 03:24:31 10° NE
ARIANE 5 R/B 4.2 03:16:52 10° NE 03:21:16 26° E 03:23:59 18° SE
Meteor 1-15 Rocket 4.5 03:16:04 10° N 03:22:02 72° ENE 03:24:48 33° SSE
SL-16 R/B 2.6 03:19:43 31° SSE 03:22:58 79° ENE 03:29:17 10° NNW
Cosmos 1777 Rocket 3.9 03:20:58 10° NNW 03:26:12 65° WSW 03:26:43 61° SW
SL-08 R/B 3.3 03:26:34 51° SSE 03:27:47 82° ENE 03:32:41 10° NNW
Iridium 4 Rocket 4.2 03:26:50 29° SE 03:28:14 38° E 03:32:24 10° NNE
Cosmos 967 Rocket 4.4 03:21:57 10° NW 03:28:25 71° SW 03:31:38 31° SSE
Cosmos 2322 Rocket 4.3 03:27:24 10° NNW 03:32:12 27° NE 03:36:57 10° E
Cosmos 1464 Rocket 4.1 03:31:45 46° SW 03:33:31 65° WNW 03:39:49 10° N
Meteor 1-13 Rocket 4.2 03:35:06 51° SW 03:36:31 72° WNW 03:42:15 10° N
PSLV R/B 4.1 03:38:00 50° SE 03:38:54 68° ENE 03:42:58 10° N
Cosmos 1656 3.7 03:37:40 10° NW 03:43:16 57° WSW 03:44:34 46° SSW
IRS-1D 4.2 03:38:59 10° NNE 03:43:58 49° E 03:46:17 29° SSE
SL-27 R/B 2.6 03:44:46 65° NNE 03:44:46 65° NNE 03:47:41 10° NNE
AQUA 3.9 03:42:55 10° NNE 03:47:43 72° ESE 03:49:06 45° S
Cosmos 2369 3.9 03:43:42 10° NW 03:49:10 50° WSW 03:50:06 45° SW
CZ-4C R/B 4.3 03:44:27 10° WNW 03:49:37 29° N 03:55:31 10° NE
USA 267 3.9 03:44:46 10° E 03:51:08 57° N 03:57:31 10° WNW
UNK 3.6 03:50:33 55° SSW 03:51:22 68° WSW 03:55:58 10° NNW
NPP 3.6 03:46:35 10° NNE 03:52:01 89° WNW 03:53:56 42° SSW
Resurs 1-4 Rocket 2.3 03:46:47 10° NNE 03:52:02 68° ESE 03:54:13 35° S
Okean 2 3.7 03:52:02 44° SSE 03:53:02 58° E 03:57:05 10° NNE
Nadezhda 4 Rocket 4.1 03:47:29 10° NNW 03:53:29 57° W 03:55:33 39° SSW
MOS 1 Rocket 4.3 03:50:46 10° N 03:54:46 31° WNW 03:55:36 29° W
Gbstr 26 Del rocket 4.3 03:51:23 35° SW 03:54:46 66° SSE 04:01:31 10° ENE
IRS-P3 4.1 03:51:26 10° NNE 03:56:50 87° WNW 03:58:49 41° SSW
Cosmos 44 4.5 03:52:39 10° NW 03:57:35 47° NE 04:02:44 10° ESE
Lacrosse 5 rocket 2.5 03:57:16 30° SSE 03:57:39 31° SE 04:01:19 10° ENE
Cosmos 1833 Rocket 2.9 03:55:59 36° S 03:58:14 64° ESE 04:03:50 10° NE
Cosmos 1606 Rocket 4.2 03:59:40 10° N 04:03:55 52° ENE 04:07:16 15° SSE
H-2A R/B 2.5 04:00:54 10° N 04:05:06 71° WNW 04:06:04 50° SW
Cosmos 1634 Rocket 4.1 04:03:12 26° S 04:06:52 77° E 04:13:09 10° NNE
Cosmos 2228 4.4 04:05:02 10° N 04:09:05 38° ENE 04:13:04 10° SE
Cosmos 2360 4.1 04:03:34 10° NNW 04:09:18 84° WSW 04:15:00 10° SSE
Iridium 82 4.5 04:10:00 61° SSW 04:10:35 83° W 04:14:24 10° N
Gblst 52 Del rocket 4.3 04:06:32 15° W 04:11:22 88° N 04:17:46 10° E
Cosmos 1515 3.9 04:11:09 49° W 04:11:31 51° WNW 04:15:18 10° N
Cosmos 332 Rocket 3.7 04:13:09 41° SW 04:14:48 75° WNW 04:19:37 10° NNE
Cosmos 371 Rocket 3.2 04:14:46 40° SW 04:16:32 77° WNW 04:21:25 10° NNE
Cosmos 44 Rocket 4.5 04:12:59 10° NW 04:17:55 48° NE 04:22:55 10° ESE
SJ 16-02 4.1 04:15:43 10° N 04:19:04 21° NE 04:22:23 10° E
Meteor 1-23 Rocket 4.4 04:19:30 32° SW 04:22:03 59° WNW 04:27:42 10° N
Cosmos 2279 Rocket 4.4 04:17:24 15° S 04:22:35 63° E 04:28:47 10° NNE
ERS-1 4.4 04:18:59 10° NNE 04:23:59 89° ESE 04:26:36 29° SSW
SAR-Lupe-2 3.7 04:24:34 48° WSW 04:24:50 49° WSW 04:28:21 10° NNW
Cosmos 1356 3.4 04:26:05 52° SW 04:26:44 67° WNW 04:30:13 10° N
Cosmos 2026 Rocket 4.0 04:20:30 10° NNW 04:26:53 71° W 04:31:55 17° S
Meteor 2-4 Rocket 4.5 04:25:39 26° WSW 04:27:38 34° WNW 04:32:33 10° N
COSMOS 2487 3.2 04:26:19 30° SSE 04:27:38 48° ESE 04:31:03 10° NNE
CBERS-1 4.4 04:22:58 10° N 04:27:56 51° WNW 04:30:08 30° SW
Cosmos 1066 Rocket 4.2 04:26:14 22° S 04:29:52 80° E 04:35:18 10° NNE
Cosmos 1025 Rocket 3.0 04:29:58 36° SSW 04:31:37 68° WNW 04:35:55 10° N
Cosmos 2208 Rocket 4.3 04:32:18 22° S 04:35:46 65° ESE 04:40:59 10° NNE
Cosmos 1898 Rocket 3.4 04:35:42 10° NNW 04:40:53 68° WSW 04:46:04 10° SSE
ATLAS 3B R/B 4.3 04:35:35 10° SSE 04:41:24 27° ESE 04:47:03 10° ENE
UNKNOWN OBJECT B 3.0 04:39:20 10° NNE 04:43:15 69° ESE 04:45:45 21° S
Lacrosse 4 Rocket 2.7 04:42:45 10° WNW 04:46:04 24° WSW 04:46:04 24° WSW
Cosmos 2360 Rocket 3.8 04:41:34 10° NNW 04:46:50 38° NE 04:52:03 10° ESE
ATLAS CENTAUR R/B 3.5 04:43:17 10° NNW 04:47:03 30° NE 04:51:01 10° E
Transit 2A Rocket 4.5 04:43:39 10° NW 04:48:19 75° SW 04:52:40 10° SSE
Cosmos 1980 Rocket 2.5 04:44:08 10° NW 04:49:27 45° WSW 04:54:44 10° S
CZ-2D R/B 2.6 04:44:23 10° N 04:49:34 47° WNW 04:52:41 22° SW
Cosmos 1570 Rocket 4.0 04:48:33 22° SSW 04:52:06 86° WNW 04:57:28 10° NNE
Cosmos 1697 Rocket 3.6 04:47:49 10° NW 04:52:28 27° WSW 04:54:30 22° SW
Cosmos 1340 Rocket 4.0 04:51:49 22° W 04:53:02 26° WNW 04:56:24 10° N
Cosmos 1655 Rocket 4.0 04:47:07 10° NNW 04:53:26 68° W 04:59:45 10° S
Cosmos 1937 Rocket 3.4 04:49:02 10° NNW 04:54:15 71° WSW 04:59:23 10° SSE
Cosmos 304 Rocket 3.7 04:52:17 21° SSW 04:55:30 87° WNW 05:00:22 10° NNE
USA 215 4.2 04:50:06 10° ENE 04:56:05 37° SE 05:01:38 12° SSW
Spot 4 Rocket 4.3 04:52:10 10° N 04:57:14 56° WNW 05:00:41 20° SW
Cosmos 858 Rocket 4.5 04:52:42 10° NNW 04:57:51 60° WSW 05:02:56 10° S
SL-16 R/B 2.2 04:54:14 10° NNW 04:59:57 87° ENE 05:05:38 10° SSE
ARIANE 5 R/B 2.8 04:55:35 10° N 05:00:41 54° WNW 05:04:20 19° SW
Meteor 1-22 Rocket 4.4 04:55:08 10° NNW 05:01:05 62° W 05:06:49 10° S
Cosmos 2266 Rocket 4.1 04:55:39 10° N 05:01:43 80° ENE 05:07:51 10° SSE
Cosmos 2082 Rocket 2.5 04:58:43 21° SW 05:02:28 54° NW 05:08:02 10° NNE
Cosmos 1607 4.3 04:57:53 19° WSW 05:02:35 63° NW 05:09:03 10° NE
SL-16 R/B 3.7 05:04:47 18° WSW 05:07:18 22° W 05:12:05 10° NW
Iridium 4 Rocket 4.3 05:06:37 19° WSW 05:08:24 25° WNW 05:12:07 10° NNW
Cosmos 468 Rocket 4.0 05:08:02 15° SSW 05:12:31 85° WNW 05:17:52 10° NNE
Cosmos 990 Rocket 4.1 05:07:36 10° NNW 05:12:36 52° WSW 05:17:35 10° S
Cosmos 1726 Rocket 4.0 05:10:12 10° NNW 05:14:14 39° W 05:17:50 12° SSW
Cosmos 2150 Rocket 4.1 05:08:51 10° NNW 05:14:18 67° WSW 05:19:43 10° S
Cosmos 1842 3.3 05:11:49 10° S 05:15:45 87° E 05:19:45 10° N
Cosmos 1953 2.9 05:12:10 10° N 05:16:14 62° ENE 05:20:16 10° SSE
Cosmos 2322 Rocket 2.1 05:11:11 10° NNW 05:16:52 76° WSW 05:22:28 10° SSE
Cosmos 1544 4.3 05:14:56 10° NW 05:17:54 24° W 05:19:25 18° SW
CZ-2D R/B 3.7 05:14:28 10° N 05:18:25 53° WNW 05:21:41 15° SW
Cosmos 1814 Rocket 4.2 05:14:32 10° SSW 05:19:39 71° ESE 05:24:50 10° NNE
ADEOS II 2.1 05:15:12 10° NNE 05:20:30 89° ESE 05:25:46 10° SSW
Cosmos 2298 Rocket 4.1 05:15:32 10° NNW 05:20:43 54° WSW 05:25:53 10° S
Cosmos 1356 Rocket 3.9 05:18:10 17° SW 05:20:52 40° WNW 05:24:44 10° N
Okean 1-7 Rocket 4.3 05:17:54 17° SW 05:20:58 38° WNW 05:25:14 10° N
PSLV R/B 4.4 05:19:43 10° NNE 05:23:51 48° E 05:27:56 10° S
ADEOS 3.8 05:21:29 10° N 05:26:35 55° WNW 05:31:32 11° SW
Cosmos 372 Rocket 4.4 05:21:39 10° NNW 05:26:54 69° ENE 05:32:05 10° SSE
Cosmos 1805 3.6 05:23:41 10° NNW 05:27:24 43° W 05:31:05 10° SSW
Helios 1A Rocket 3.8 05:24:30 10° N 05:28:18 35° WNW 05:31:27 14° SW
Cosmos 1812 Rocket 3.9 05:25:13 10° N 05:29:43 72° ENE 05:34:11 10° SSE
Cosmos 2058 Rocket 3.6 05:26:21 10° NNW 05:30:27 38° W 05:34:34 10° SSW
Resurs 1-4 Rocket 3.5 05:27:20 10° N 05:31:26 24° WNW 05:35:18 11° WSW
Cosmos 1766 4.2 05:28:14 10° NNW 05:31:33 27° W 05:34:46 10° SSW
Cosmos 724 4.4 05:27:34 10° SSW 05:33:19 76° SE 05:39:08 10° NE
USA 267 3.3 05:27:24 10° ESE 05:33:59 88° SSW 05:40:34 10° WNW
Cosmos 1378 4.2 05:31:00 10° SSE 05:34:35 46° E 05:38:13 10° NNE
Lacrosse 5 rocket 1.5 05:32:55 13° WSW 05:36:41 68° NNW 05:40:40 10° ENE
Cosmos 44 3.8 05:34:00 10° NW 05:38:52 42° WSW 05:43:53 10° S
USA 238 DEB 4.2 05:32:15 10° SSW 05:38:58 61° SE 05:45:51 10° NE
USA 238 4.2 05:32:21 10° SSW 05:39:05 60° SE 05:45:58 10° NE
Cosmos 1602 Rocket 3.7 05:35:32 10° S 05:39:50 75° E 05:44:11 10° NNE
CZ-4C R/B 4.3 05:34:08 10° NW 05:40:00 34° NNE 05:46:41 10° E
Cosmos 1758 3.4 05:36:54 10° NNW 05:40:49 56° W 05:44:42 10° S
Gbstr 26 Del rocket 4.2 05:34:37 10° W 05:42:12 86° N 05:48:28 10° E
Cosmos 1833 Rocket 3.8 05:37:40 10° WSW 05:42:36 31° NW 05:47:36 10° NNE
Meteor 2-11 Rocket 4.5 05:37:43 10° SSW 05:43:53 84° W 05:50:06 10° N
deb Kosmos-1763 4.2 05:41:05 10° SSW 05:44:51 86° ESE 05:48:38 10° NNE
Cosmos 2228 4.1 05:42:57 10° NNW 05:46:28 25° W 05:49:56 10° SW
Cosmos 841 Rocket 3.5 05:46:47 10° SSW 05:51:58 87° WNW 05:57:13 10° NNE
Cosmos 1626 Rocket 3.5 05:48:51 10° SSW 05:53:10 74° WNW 05:57:30 10° N
Cosmos 2322 4.0 05:50:05 10° NNW 05:55:51 79° ENE 06:01:35 10° SSE
SJ 16-02 1.3 05:53:42 10° NNW 05:58:05 64° WSW 06:02:26 10° S
Meteor 1-28 Rocket 3.4 05:54:26 10° SSE 05:58:10 80° ENE 06:01:58 10° N
Cosmos 44 Rocket 3.9 05:54:42 10° NW 05:59:28 40° WSW 06:04:16 10° S
CZ-4B R/B 3.1 05:55:32 10° NNE 05:59:55 83° ESE 06:04:03 10° SSW
COSMOS 2487 4.3 06:00:44 10° W 06:03:12 18° NW 06:05:42 10° N
